This is the latest recevied weather packets stored in our database for station/object EA3IK-1. If no packets are shown the sender has not sent any weather packets the latest 10 day(s).
| Time | Temp. | Humidity | Pressure | Rain* | Wind** | Luminosity | Snow |
|---|---|---|---|---|---|---|---|
| 1777801412 | 18.33° C | 64% | 1016.2 hPa | 0 mm | - | - | - |
| 1777800512 | 17.78° C | 62% | 1016.2 hPa | 0 mm | - | - | - |
| 1777799611 | 17.78° C | 61% | 1016.3 hPa | 0 mm | - | - | - |
| 1777798711 | 17.78° C | 60% | 1016.2 hPa | 0 mm | - | - | - |
| 1777797809 | 17.78° C | 60% | 1016.2 hPa | 0 mm | - | - | - |
| 1777796908 | 17.78° C | 59% | 1016.3 hPa | 0 mm | - | - | - |
| 1777796007 | 17.22° C | 56% | 1016.2 hPa | 0 mm | - | - | - |
| 1777795106 | 16.67° C | 53% | 1016.2 hPa | 0 mm | - | - | - |
| 1777794206 | 16.67° C | 49% | 1016.1 hPa | 0 mm | - | - | - |
| 1777793305 | 16.67° C | 47% | 1016.3 hPa | 0 mm | - | - | - |
| 1777792404 | 16.11° C | 47% | 1016.2 hPa | 0 mm | - | - | - |
| 1777791503 | 16.11° C | 47% | 1016.3 hPa | 0 mm | - | - | - |
| 1777790602 | 16.11° C | 47% | 1016.3 hPa | 0 mm | - | - | - |
| 1777789701 | 16.11° C | 48% | 1016.4 hPa | 0 mm | - | - | - |
| 1777788801 | 16.11° C | 49% | 1016.4 hPa | 0 mm | - | - | - |
| 1777787900 | 16.11° C | 50% | 1016.3 hPa | 0 mm | - | - | - |
| 1777786999 | 15.56° C | 50% | 1016.3 hPa | 0 mm | - | - | - |
| 1777786098 | 15.56° C | 49% | 1016.2 hPa | 0 mm | - | - | - |
| 1777785197 | 15.56° C | 48% | 1016.2 hPa | 0 mm | - | - | - |
| 1777784296 | 15.56° C | 47% | 1016.1 hPa | 0 mm | - | - | - |
| 1777783396 | 15.56° C | 48% | 1016.1 hPa | 0 mm | - | - | - |
| 1777782495 | 16.11° C | 48% | 1016.2 hPa | 0 mm | - | - | - |
| 1777781594 | 16.11° C | 47% | 1016.4 hPa | 0 mm | - | - | - |
| 1777780693 | 16.11° C | 46% | 1016.6 hPa | 0 mm | - | - | - |
| 1777779792 | 16.11° C | 46% | 1016.8 hPa | 0 mm | - | - | - |
* Rain latest hour (hover to see other rain measurements)
** Current wind speed in m/s (hover to see current wind gust speed)